Location: Fading
(46.9167°N, 15.3833°E)
Time: 20:58:05
(UTC+00:00)

Daily predictions for brighter satellites

Satellite Brightness Start Highest point End
(mag) Time Altitude Azimuth Time Altitude Azimuth Time Altitude Azimuth
Cosmos-2242 3.7 19:26:07 10° N 19:30:14 40° ENE 19:34:21 10° SE
Cosmos 1400 Rocket 3.4 19:28:21 10° N 19:32:09 40° ENE 19:35:51 10° SE
SPOT 3 Rocket 4.1 19:27:02 10° S 19:32:11 62° WSW 19:37:23 10° NNW
Alouette 2 Rocket 4.2 19:29:57 10° N 19:33:37 41° ENE 19:38:27 10° SE
Lacrosse 5 rocket 3.8 19:32:27 10° WNW 19:36:01 25° NNW 19:39:26 10° NE
Resurs 01 Rocket 1.8 19:33:39 10° S 19:38:03 75° WSW 19:42:29 10° NNW
NOSS 7 (D) 3.9 19:35:35 10° SW 19:38:25 82° NW 19:41:07 10° NE
Terra 3.4 19:36:59 10° ESE 19:40:31 21° ENE 19:44:04 10° NNE
BREEZE-M DEB (TANK) 4.4 19:38:31 10° SSW 19:43:17 21° SSE 19:45:35 10° ESE
Cosmos 2322 Rocket 3.1 19:41:33 10° SW 19:47:03 56° WNW 19:52:36 10° NNE
BREEZE M DEB (TANK) 1.7 19:46:11 10° WNW 19:49:27 89° SSW 19:51:26 10° ESE
NOSS 3-3 (A) 4.5 19:44:40 10° S 19:49:52 35° ESE 19:55:36 10° NE
NOSS 3-3 (C) 4.5 19:44:47 10° S 19:49:59 35° ESE 19:55:43 10° NE
Meteor 1-21 Rocket 4.5 19:44:15 10° SSW 19:50:09 83° W 19:56:08 10° N
Cosmos 2237 4.4 19:46:44 10° SSW 19:52:29 85° WNW 19:58:16 10° NNE
Cosmos 1758 Rocket 3.6 19:50:07 10° S 19:54:36 80° E 19:59:07 10° NNE
Cosmos 783 Rocket 4.5 19:49:54 10° SSW 19:55:07 75° ESE 20:00:21 10° NNE
Cosmos 1455 2.6 19:52:02 10° NNW 19:55:51 64° W 19:59:39 10° S
SL-24 R/B - RUBIN 2 4.5 19:50:14 10° SSW 19:56:08 63° ESE 20:02:40 10° NE
USA 245 3.2 19:54:58 10° SSE 19:58:18 80° ENE 20:02:36 10° NNW
Cosmos 1328 3.7 19:56:00 10° S 19:59:57 74° E 20:03:56 10° NNE
ATLAS 2AS CENTAUR R/B 4.0 20:00:10 10° NW 20:07:15 37° NNE 20:13:49 10° E
COSMOS 2428 3.1 20:04:26 10° S 20:09:45 44° ESE 20:15:06 10° NE
Cosmos 1844 3.9 20:04:57 10° NNW 20:10:44 76° WSW 20:16:01 12° SSE
Cosmos 1703 3.4 20:07:00 10° SSW 20:10:51 73° W 20:14:45 10° N
Cosmos 2181 Rocket 4.2 20:05:18 10° N 20:11:36 61° ENE 20:17:11 13° SSE
Cosmos 2322 3.7 20:06:46 10° SSW 20:12:28 75° ESE 20:18:12 10° NNE
Cosmos 2084 3.8 20:11:29 10° NW 20:15:56 61° NE 20:19:31 15° SE
Cosmos 1953 Rocket 3.5 20:13:34 10° S 20:17:52 77° E 20:22:13 10° NNE
Cosmos 773 Rocket 4.0 20:13:22 10° SSW 20:18:39 78° ESE 20:23:57 10° NNE
Cosmos 2237 Rocket 3.5 20:17:54 15° SE 20:20:55 22° E 20:25:11 10° NE
ERS-1 Rocket 3.0 20:16:48 14° SSE 20:21:10 73° ENE 20:26:13 10° N
Cosmos 2219 Rocket 2.2 20:16:04 10° S 20:21:32 60° ESE 20:27:04 10° NNE
ATLAS CENTAUR R/B 1.2 20:18:33 10° NNW 20:22:14 64° NE 20:24:46 18° SE
USA 215 3.4 20:16:40 10° ENE 20:23:00 49° SE 20:29:18 10° SSW
Cosmos 1818 4.3 20:18:09 10° SW 20:23:30 58° NW 20:28:54 10° NNE
Meteor 1-27 4.4 20:17:51 10° N 20:23:35 66° ENE 20:28:18 16° SSE
Gblst 52 Del rocket 4.4 20:18:33 10° WNW 20:24:12 82° NNE 20:30:21 11° ESE
Cosmos 2360 Rocket 3.1 20:18:45 10° SW 20:24:15 53° WNW 20:29:50 10° NNE
Cosmos 2333 4.2 20:18:42 10° SSW 20:24:21 87° ESE 20:30:06 10° NNE
Cosmos 1869 4.4 20:21:04 10° N 20:24:39 31° ENE 20:27:01 17° SE
Cosmos 1842 Rocket 4.2 20:22:28 10° N 20:26:37 41° ENE 20:29:24 18° SE
SPOT 5 2.9 20:23:12 15° SSE 20:27:18 71° ENE 20:32:04 10° N
Landsat 7 4.4 20:26:14 10° S 20:30:53 54° W 20:35:34 10° NNW
Atlas Centaur 2 4.0 20:28:58 10° SW 20:32:46 17° S 20:34:39 15° SSE
Cosmos 1825 Rocket 4.4 20:28:40 10° SSW 20:32:59 51° WNW 20:37:22 10° N
Cosmos 2333 Rocket 2.2 20:29:42 10° SSW 20:35:23 81° ESE 20:41:09 10° NNE
GEOS 3 Rocket 3.7 20:33:31 10° NE 20:38:57 86° NW 20:44:20 10° SW
BREEZE-M DEB (TANK) 4.4 20:43:56 13° ESE 20:43:56 13° ESE 20:45:26 10° E
NOSS 0 Rocket 4.3 20:38:25 13° S 20:43:28 43° ESE 20:49:15 10° NE
Cosmos 1315 Rocket 2.9 20:42:59 10° NNW 20:47:05 81° W 20:49:46 21° S
Meteor 2-2 Rocket 4.4 20:43:28 10° N 20:49:16 63° ENE 20:53:03 21° SSE
Cosmos 1892 3.5 20:51:28 26° SE 20:52:50 35° E 20:56:19 10° NNE
CARTOSAT-1 4.0 20:49:41 17° S 20:52:52 56° W 20:57:07 10° NNW
ATLAS 5 CENTAUR R/B 3.3 20:49:19 10° WSW 20:53:15 36° NW 20:57:41 10° NNE
USA 81 4.3 20:48:47 10° SSW 20:53:58 71° W 20:59:15 10° N
Cosmos 2278 Rocket 2.3 20:49:28 10° NNW 20:55:09 69° ENE 20:58:50 22° SE
USA 267 3.6 20:49:20 10° ESE 20:55:49 67° NNE 21:02:19 10° NW
Cosmos 1844 Rocket 4.2 20:52:16 10° NW 20:56:54 27° WSW 21:01:30 10° SSW
Cosmos 1943 Rocket 4.5 20:54:27 10° N 20:57:55 16° NE 21:01:21 10° ENE
MTI 3.9 20:58:29 10° NNE 21:01:31 51° E 21:02:17 39° SSE
Cosmos 1680 Rocket 4.0 20:59:30 23° SSE 21:02:19 42° ESE 21:07:20 10° NE
Cosmos 1408 3.6 21:03:39 26° ESE 21:04:22 28° E 21:07:26 10° NNE
SL-16 R/B 3.7 21:04:44 17° ESE 21:06:02 19° E 21:09:51 10° ENE
Cosmos 2221 2.6 21:08:33 10° NNW 21:12:58 77° W 21:15:14 27° S
Cosmos 2184 Rocket 4.0 21:08:51 18° S 21:13:43 87° E 21:20:05 10° N
Lacrosse 5 rocket 3.9 21:13:09 10° NW 21:16:17 20° N 21:19:18 10° NE
In-Cosmos 22 Rocket 4.0 21:14:18 23° S 21:17:40 76° E 21:23:00 10° NNE
Terra 2.3 21:14:58 22° S 21:17:54 54° W 21:22:35 10° NNW
Cosmos 923 Rocket 3.9 21:16:24 19° SSW 21:20:09 77° ESE 21:25:28 10° NNE
TSX-5 3.9 21:25:07 10° NW 21:28:38 64° WSW 21:30:04 37° S
Cosmos 2058 2.8 21:27:38 31° S 21:29:34 87° W 21:33:45 10° N
NOSS 3-4 (A) 3.9 21:24:01 10° NW 21:31:00 84° NE 21:36:03 24° SE
NOSS 3-4 (C) 3.9 21:24:08 10° NW 21:31:07 83° NE 21:36:11 24° SE
Cosmos 1624 Rocket 4.1 21:33:32 10° NNW 21:38:46 66° ENE 21:41:12 31° SE
Cosmos 1825 2.4 21:39:57 44° SE 21:40:41 52° E 21:44:22 10° NNE
EO 1 Delta rocket 4.3 21:40:32 10° NNE 21:45:40 67° E 21:48:46 30° S
Cosmos 1980 3.7 21:41:49 16° SSW 21:46:23 81° WNW 21:52:05 10° NNE
Cosmos 2369 Rocket 4.1 21:42:06 10° N 21:46:28 23° NE 21:50:49 10° E
Aureole 2 Rocket 2.8 21:46:01 10° N 21:48:44 38° ENE 21:48:50 38° ENE
Cosmos 1076 Rocket 3.8 21:47:32 28° SSW 21:49:38 61° WNW 21:53:53 10° N
Nadezhda 3 Rocket 4.1 21:45:26 10° NNW 21:51:47 72° W 21:55:18 28° S
Cosmos 2154 Rocket 4.1 21:49:47 23° SSW 21:53:48 74° W 22:00:03 10° N
COSMOS 2455 4.0 21:48:13 10° NNW 21:53:51 39° NE 21:58:41 14° ESE
COSMOS 2428 4.2 21:48:59 10° WSW 21:54:07 35° NW 21:59:20 10° NNE
Cosmos 2151 2.9 21:55:43 45° SSE 21:56:56 71° E 22:01:12 10° NNE
Cosmos 2341 Rocket 4.0 21:55:15 31° S 21:58:19 71° E 22:04:31 10° NNE
Cosmos 1933 4.2 21:54:58 10° N 21:58:45 38° ENE 21:59:44 32° ESE
ATLAS 2AS CENTAUR R/B 2.8 21:51:22 10° NW 21:58:56 76° SW 22:02:39 31° SSE
Thor Agena Rocket 3.4 21:54:00 10° NNE 21:59:09 87° ESE 22:01:29 33° SSW
DELTA 2 R/B (1) 4.0 21:55:01 10° WSW 22:00:10 39° S 22:01:15 35° SSE
ATLAS CENTAUR R/B 3.4 21:59:02 10° W 22:00:35 12° WSW 22:00:56 12° WSW
Genesis I 3.4 22:00:58 26° SW 22:03:00 69° NW 22:06:54 10° NNE
BREEZE-M DEB (TANK) 1.3 21:59:30 10° WNW 22:03:17 80° NNE 22:03:23 77° ENE
SL-4 R/B 3.6 22:04:30 11° NE 22:04:30 11° NE 22:04:45 10° NE
Cosmos 2237 Rocket 2.6 21:59:39 15° SW 22:04:28 64° WNW 22:10:09 10° NNE
Cosmos 2219 Rocket 4.2 22:01:12 10° WSW 22:05:54 27° NW 22:10:38 10° N
USA 215 3.7 21:59:40 10° NE 22:06:09 64° NNW 22:12:36 10° WSW
Cosmos 1371 Rocket 4.1 22:01:36 10° NNW 22:06:50 66° WSW 22:08:51 37° S
Spot 4 3.9 22:06:50 39° S 22:08:33 68° WSW 22:13:20 10° NNW
Cosmos 2344 3.5 22:05:03 13° SSW 22:11:49 83° SE 22:19:55 10° NE
Cosmos 158 Rocket 4.4 22:09:33 20° SW 22:12:45 54° WNW 22:17:35 10° NNE
SL-8 Rocket 4.0 22:11:02 34° SSE 22:13:48 70° E 22:19:56 10° NNE
Cosmos 1151 Rocket 3.1 22:10:20 10° N 22:14:39 63° E 22:15:44 45° SE
Cosmos 1408 Rocket 4.1 22:15:03 38° ESE 22:15:54 43° E 22:20:05 10° NNE
Cosmos 1782 4.3 22:13:04 10° NNE 22:16:27 26° ENE 22:17:28 23° E
CZ-4C R/B 4.0 22:13:22 10° NNW 22:19:51 41° NE 22:27:20 10° ESE
ALOS 2 2.5 22:18:57 48° SSE 22:20:09 83° ENE 22:24:34 10° NNW
Cosmos 1346 Rocket 3.9 22:20:27 30° ESE 22:20:44 30° E 22:24:13 10° NNE
Cosmos 332 Rocket 4.3 22:16:09 10° NNW 22:20:51 51° ENE 22:22:47 32° ESE
Cosmos 1420 Rocket 4.0 22:16:34 10° NNW 22:21:54 81° ENE 22:23:55 39° SSE
Cosmos 1727 Rocket 4.3 22:20:20 10° N 22:26:29 56° ENE 22:29:28 30° SE
EO 1 Del DPAF 4.1 22:25:08 10° N 22:28:44 44° WNW 22:29:55 32° WSW
Cosmos 2056 Rocket 4.1 22:25:24 10° NNW 22:30:36 49° WSW 22:32:26 35° SSW
GP-B 3.0 22:27:28 10° N 22:31:56 85° W 22:33:05 50° S
Cosmos 1633 3.5 22:32:54 35° E 22:32:58 35° E 22:36:18 10° NNE
Nimbus 7 Rocket 4.4 22:29:13 10° NNE 22:35:10 85° WNW 22:37:58 33° SSW
Cosmos 1606 2.9 22:33:02 10° NNW 22:36:52 58° W 22:37:25 52° SW
RESURS DK-1 4.2 22:35:04 10° N 22:38:35 26° NE 22:41:06 15° E
Cosmos 2278 Rocket 3.9 22:34:37 10° NW 22:38:39 20° W 22:40:40 17° SW
USA 267 3.6 22:36:39 34° S 22:39:00 47° SW 22:45:18 10° WNW
Cosmos 2297 3.8 22:36:12 10° NNW 22:41:53 64° WSW 22:43:52 40° S
Cosmos 1943 4.5 22:41:16 23° ESE 22:42:32 25° ESE 22:47:05 10° NE
Cosmos 44 3.1 22:40:51 35° SW 22:42:34 71° NW 22:47:01 10° NNE
Cosmos 1943 Rocket 2.4 22:37:06 10° NNW 22:42:47 69° ENE 22:45:29 31° SE
Gbstr 26 Del rocket 2.9 22:44:20 53° ESE 22:44:20 53° ESE 22:48:00 10° ENE
Landsat 4 4.3 22:44:48 10° NNE 22:48:25 41° E 22:48:35 40° ESE
SL-16 R/B 2.3 22:46:35 30° SW 22:49:30 74° WNW 22:55:13 10° NNE
Cosmos 371 Rocket 3.3 22:45:19 10° NNW 22:50:09 65° WSW 22:51:21 47° SSW
IRIDIUM 104 4.5 22:49:58 38° SSW 22:51:52 65° W 22:57:05 10° N
APEX 3.5 22:51:57 10° NNW 22:53:52 40° NW 22:53:52 40° NW
CREW DRAGON DEMO-1 DEB 3.9 22:53:16 21° W 22:54:58 44° NNW 22:57:57 10° ENE
Cosmos 405 3.0 22:52:28 10° N 22:55:59 66° ENE 22:56:11 64° E
Lacrosse 5 rocket 2.4 22:52:28 10° NW 22:56:18 41° NNE 22:59:14 14° E
Cosmos 1452 Rocket 3.4 22:52:23 10° NNW 22:57:40 77° WSW 22:59:20 44° S
Cosmos 1515 Rocket 3.5 22:54:53 10° NNW 22:59:15 78° W 23:00:08 55° SSW
ISS -1.0 23:04:52 11° E 23:04:52 11° E 23:05:03 10° E
Cosmos 1328 Rocket 4.3 23:01:15 10° NNW 23:05:17 39° W 23:06:06 36° WSW
Meteor 2-3 Rocket 4.0 23:12:54 33° SW 23:15:21 60° WNW 23:21:01 10° N
Cosmos 1340 3.7 23:15:33 32° W 23:16:17 35° WNW 23:19:48 10° N
Cosmos 2228 Rocket 3.1 23:15:40 10° N 23:20:17 86° W 23:21:26 51° S
Resurs 1-4 Rocket 4.2 23:17:53 10° NE 23:21:09 16° E 23:23:48 12° ESE
Cosmos 1603 3.8 23:22:36 40° S 23:24:33 64° ESE 23:30:13 10° NNE
Meteor 2-6 Rocket 4.1 23:21:00 10° N 23:26:31 84° E 23:28:38 39° SSE
Meteor 1-10 Rocket 4.3 23:22:19 10° N 23:27:54 73° ENE 23:30:21 34° SSE
Cosmos 1743 Rocket 3.8 23:29:40 45° SW 23:30:42 60° WNW 23:35:01 10° N
Sich 1 3.6 23:29:53 38° SE 23:30:55 46° E 23:35:05 10° NNE
CZ-4 R/B 3.7 23:26:18 10° NNE 23:31:02 81° ESE 23:32:25 46° S
Cosmos 2369 Rocket 2.1 23:25:31 10° NNW 23:31:07 75° WSW 23:33:18 38° S
SL-4 R/B 3.9 23:32:14 12° E 23:32:14 12° E 23:32:42 10° ENE
Cosmos 44 Rocket 3.5 23:32:07 45° SSE 23:33:00 52° ESE 23:37:36 10° NE
Cosmos 1821 Rocket 3.9 23:30:57 37° S 23:33:36 89° WNW 23:39:44 10° N
Cosmos 304 Rocket 4.0 23:29:17 10° NNW 23:33:58 52° WSW 23:35:00 44° SSW
Helios 1A 3.8 23:34:08 33° WSW 23:34:35 34° W 23:38:23 10° NNW
Lacrosse 5 4.0 23:36:20 13° ESE 23:36:35 13° ESE 23:38:45 10° E
Cosmos 2123 Rocket 4.2 23:31:17 10° N 23:37:28 66° E 23:40:48 28° SSE
COSMOS 2455 3.2 23:34:11 10° NW 23:39:56 47° WSW 23:41:47 36° SSW
Cosmos 1656 Rocket 3.8 23:35:51 10° NNW 23:41:17 70° ENE 23:44:30 25° SE
ATLAS 2AS CENTAUR R/B 4.3 23:44:21 10° WNW 23:48:33 16° WSW 23:50:04 15° WSW
Cosmos 1812 2.6 23:46:52 10° N 23:50:45 88° WSW 23:51:25 60° S
CRYOSAT 2 4.5 23:47:20 10° N 23:52:08 63° W 23:53:46 40° SW
Cosmos 1782 4.1 23:49:22 10° NNW 23:52:42 26° W 23:53:04 26° W
USA 32 4.0 23:51:42 39° S 23:53:44 87° E 23:59:02 10° N
CZ-2D R/B 3.4 23:49:56 10° NE 23:54:35 30° E 23:57:20 19° SE
